Date,TemperatureHighF,TemperatureAvgF,TemperatureLowF,DewpointHighF,DewpointAvgF,DewpointLowF,HumidityHigh,HumidityAvg,HumidityLow,PressureMaxIn,PressureMinIn,WindSpeedMaxMPH,WindSpeedAvgMPH,GustSpeedMaxMPH,PrecipitationSumIn
2013-1-1,30,22,11,-100,-100,-100,0,0,100,0.00,40.00,0,-999,0,0.00
2013-1-2,21,11,1,-100,-100,-100,0,0,100,0.00,40.00,0,-999,0,0.00
2013-1-3,16,8,1,-100,-100,-100,0,0,100,0.00,40.00,0,-999,0,0.00
2013-1-4,34,20,-1,-100,-100,-100,0,0,100,0.00,40.00,0,-999,0,0.00
2013-1-5,32,27,13,-100,-100,-100,0,0,100,0.00,40.00,0,-999,0,0.00
2013-1-6,32,22,12,-100,-100,-100,0,0,100,0.00,40.00,0,-999,0,0.00
2013-1-7,31,23,7,-100,-100,-100,0,0,100,0.00,40.00,0,-999,0,0.00
2013-1-8,35,15,2,-100,-100,-100,0,0,100,0.00,40.00,0,-999,0,0.00
2013-1-9,33,22,11,-100,-100,-100,0,0,100,0.00,40.00,0,-999,0,0.00
2013-1-10,41,36,29,-100,-100,-100,0,0,100,0.00,40.00,0,-999,0,0.00
2013-1-11,35,28,19,-100,-100,-100,0,0,100,0.00,40.00,0,-999,0,0.00
2013-1-12,37,34,32,-100,-100,-100,0,0,100,0.00,40.00,0,-999,0,0.00
2013-1-13,37,34,33,-100,-100,-100,0,0,100,0.00,40.00,0,-999,0,0.00
2013-1-14,52,38,31,-100,-100,-100,0,0,100,0.00,40.00,0,-999,0,0.00
2013-1-15,36,31,27,-100,-100,-100,0,0,100,0.00,40.00,0,-999,0,0.00
2013-1-16,29,28,27,-100,-100,-100,0,0,100,0.00,40.00,0,-999,0,0.00
2013-1-17,36,24,16,-100,-100,-100,0,0,100,0.00,40.00,0,-999,0,0.00
2013-1-18,18,10,2,-100,-100,-100,0,0,100,0.00,40.00,0,-999,0,0.00
2013-1-19,31,20,6,-100,-100,-100,0,0,100,0.00,40.00,0,-999,0,0.00
2013-1-20,43,28,17,-100,-100,-100,0,0,100,0.00,40.00,0,-999,0,0.00
2013-1-21,23,18,8,-100,-100,-100,0,0,100,0.00,40.00,0,-999,0,0.00
2013-1-22,20,14,2,-100,-100,-100,0,0,100,0.00,40.00,0,-999,0,0.00
2013-1-23,3,-2,-8,-100,-100,-100,0,0,100,0.00,40.00,0,-999,0,0.00
2013-1-24,11,1,-9,-100,-100,-100,0,0,100,0.00,40.00,0,-999,0,0.00
2013-1-25,16,8,1,-100,-100,-100,0,0,100,0.00,40.00,0,-999,0,0.00
2013-1-26,17,12,5,-100,-100,-100,0,0,100,0.00,40.00,0,-999,0,0.00
2013-1-27,21,13,7,-100,-100,-100,0,0,100,0.00,40.00,0,-999,0,0.00
2013-1-28,19,13,4,-100,-100,-100,0,0,100,0.00,40.00,0,-999,0,0.00
2013-1-29,33,23,9,-100,-100,-100,0,0,100,0.00,40.00,0,-999,0,0.00
2013-1-30,35,33,31,-100,-100,-100,0,0,100,0.00,40.00,0,-999,0,0.00
2013-1-31,52,36,25,-100,-100,-100,0,0,100,0.00,40.00,0,-999,0,0.00
2013-2-1,25,21,15,-100,-100,-100,0,0,100,0.00,40.00,0,-999,0,0.00
2013-2-2,23,17,8,-100,-100,-100,0,0,100,0.00,40.00,0,-999,0,0.00
2013-2-3,26,20,11,-100,-100,-100,0,0,100,0.00,40.00,0,-999,0,0.00
2013-2-4,26,20,14,-100,-100,-100,0,0,100,0.00,40.00,0,-999,0,0.00
2013-2-5,25,15,5,-100,-100,-100,0,0,100,0.00,40.00,0,-999,0,0.00
2013-2-6,32,22,16,-100,-100,-100,0,0,100,0.00,40.00,0,-999,0,0.00
2013-2-7,20,15,8,-100,-100,-100,0,0,100,0.00,40.00,0,-999,0,0.00
2013-2-8,17,14,11,-100,-100,-100,0,0,100,0.00,40.00,0,-999,0,0.00
2013-2-9,18,16,13,-100,-100,-100,0,0,100,0.00,40.00,0,-999,0,0.00
2013-2-10,32,16,-3,-100,-100,-100,0,0,100,0.00,40.00,0,-999,0,0.00
2013-2-11,27,18,7,-100,-100,-100,0,0,100,0.00,40.00,0,-999,0,0.00
2013-2-12,41,34,25,-100,-100,-100,0,0,100,0.00,40.00,0,-999,0,0.00
2013-2-13,38,31,24,-100,-100,-100,0,0,100,0.00,40.00,0,-999,0,0.00
2013-2-14,37,27,19,-100,-100,-100,0,0,100,0.00,40.00,0,-999,0,0.00
2013-2-15,47,31,19,-100,-100,-100,0,0,100,0.00,40.00,0,-999,0,0.00
2013-2-16,35,31,25,-100,-100,-100,0,0,100,0.00,40.00,0,-999,0,0.00
2013-2-17,24,18,13,-100,-100,-100,0,0,100,0.00,40.00,0,-999,0,0.00
2013-2-18,25,16,8,-100,-100,-100,0,0,100,0.00,40.00,0,-999,0,0.00
2013-2-19,38,26,12,-100,-100,-100,0,0,100,0.00,40.00,0,-999,0,0.00
2013-2-20,33,28,22,-100,-100,-100,0,0,100,0.00,40.00,0,-999,0,0.00
2013-2-21,23,20,15,-100,-100,-100,0,0,100,0.00,40.00,0,-999,0,0.00
2013-2-22,38,26,11,-100,-100,-100,0,0,100,0.00,40.00,0,-999,0,0.00
2013-2-23,32,30,26,-100,-100,-100,0,0,100,0.00,40.00,0,-999,0,0.00
2013-2-24,33,31,29,-100,-100,-100,0,0,100,0.00,40.00,0,-999,0,0.00
2013-2-25,37,32,28,-100,-100,-100,0,0,100,0.00,40.00,0,-999,0,0.00
2013-2-26,38,34,31,-100,-100,-100,0,0,100,0.00,40.00,0,-999,0,0.00
2013-2-27,33,32,30,-100,-100,-100,0,0,100,0.00,40.00,0,-999,0,0.00
2013-2-28,43,35,30,-100,-100,-100,0,0,100,0.00,40.00,0,-999,0,0.00
2013-3-1,37,34,29,-100,-100,-100,0,0,100,0.00,40.00,0,-999,0,0.00
2013-3-2,38,33,28,-100,-100,-100,0,0,100,0.00,40.00,0,-999,0,0.00
2013-3-3,38,31,26,-100,-100,-100,0,0,100,0.00,40.00,0,-999,0,0.00
2013-3-4,32,28,26,-100,-100,-100,0,0,100,0.00,40.00,0,-999,0,0.00
2013-3-5,43,33,25,-100,-100,-100,0,0,100,0.00,40.00,0,-999,0,0.00
2013-3-6,36,33,31,-100,-100,-100,0,0,100,0.00,40.00,0,-999,0,0.00
2013-3-7,34,31,30,-100,-100,-100,0,0,100,0.00,40.00,0,-999,0,0.00
2013-3-8,43,34,27,-100,-100,-100,0,0,100,0.00,40.00,0,-999,0,0.00
2013-3-9,55,35,22,-100,-100,-100,0,0,100,0.00,40.00,0,-999,0,0.00
2013-3-10,50,35,21,-100,-100,-100,0,0,100,0.00,40.00,0,-999,0,0.00
2013-3-11,49,37,30,-100,-100,-100,0,0,100,0.00,40.00,0,-999,0,0.00
2013-3-12,45,38,33,-100,-100,-100,0,0,100,0.00,40.00,0,-999,0,0.00
2013-3-13,45,38,29,-100,-100,-100,0,0,100,0.00,40.00,0,-999,0,0.00
2013-3-14,33,28,18,-100,-100,-100,0,0,100,0.00,40.00,0,-999,0,0.00
2013-3-15,35,24,15,-100,-100,-100,0,0,100,0.00,40.00,0,-999,0,0.00
2013-3-16,31,26,20,-100,-100,-100,0,0,100,0.00,40.00,0,-999,0,0.00
2013-3-17,28,22,14,-100,-100,-100,0,0,100,0.00,40.00,0,-999,0,0.00
2013-3-18,36,23,7,-100,-100,-100,0,0,100,0.00,40.00,0,-999,0,0.00
2013-3-19,30,27,23,-100,-100,-100,0,0,100,0.00,40.00,0,-999,0,0.00
2013-3-20,31,27,23,-100,-100,-100,0,0,100,0.00,40.00,0,-999,0,0.00
2013-3-21,38,26,13,-100,-100,-100,0,0,100,0.00,40.00,0,-999,0,0.00
2013-3-22,37,30,19,-100,-100,-100,0,0,100,0.00,40.00,0,-999,0,0.00
2013-3-23,37,31,24,-100,-100,-100,0,0,100,0.00,40.00,0,-999,0,0.00
2013-3-24,41,35,27,-100,-100,-100,0,0,100,0.00,40.00,0,-999,0,0.00
2013-3-25,41,31,20,-100,-100,-100,0,0,100,0.00,40.00,0,-999,0,0.00
2013-3-26,47,38,30,-100,-100,-100,0,0,100,0.00,40.00,0,-999,0,0.00
2013-3-27,46,37,24,-100,-100,-100,0,0,100,0.00,40.00,0,-999,0,0.00
2013-3-28,46,38,32,-100,-100,-100,0,0,100,0.00,40.00,0,-999,0,0.00
2013-3-29,48,41,34,-100,-100,-100,0,0,100,0.00,40.00,0,-999,0,0.00
2013-3-30,52,40,29,-100,-100,-100,0,0,100,0.00,40.00,0,-999,0,0.00
2013-3-31,56,39,22,-100,-100,-100,0,0,100,0.00,40.00,0,-999,0,0.00
2013-4-1,52,39,32,-100,-100,-100,0,0,100,0.00,40.00,0,-999,0,0.00
2013-4-2,35,30,25,-100,-100,-100,0,0,100,0.00,40.00,0,-999,0,0.00
2013-4-3,41,32,25,-100,-100,-100,0,0,100,0.00,40.00,0,-999,0,0.00
2013-4-4,53,39,27,-100,-100,-100,0,0,100,0.00,40.00,0,-999,0,0.00
2013-4-5,54,39,29,-100,-100,-100,0,0,100,0.00,40.00,0,-999,0,0.00
2013-4-6,40,31,24,-100,-100,-100,0,0,100,0.00,40.00,0,-999,0,0.00
2013-4-7,57,38,25,-100,-100,-100,0,0,100,0.00,40.00,0,-999,0,0.00
2013-4-8,58,45,32,-100,-100,-100,0,0,100,0.00,40.00,0,-999,0,0.00
2013-4-9,53,43,39,-100,-100,-100,0,0,100,0.00,40.00,0,-999,0,0.00
2013-4-10,54,46,41,-100,-100,-100,0,0,100,0.00,40.00,0,-999,0,0.00
2013-4-11,45,42,39,-100,-100,-100,0,0,100,0.00,40.00,0,-999,0,0.00
2013-4-12,38,33,30,-100,-100,-100,0,0,100,0.00,40.00,0,-999,0,0.00
2013-4-13,50,39,32,-100,-100,-100,0,0,100,0.00,40.00,0,-999,0,0.00
2013-4-14,48,40,33,-100,-100,-100,0,0,100,0.00,40.00,0,-999,0,0.00
2013-4-15,57,42,27,-100,-100,-100,0,0,100,0.00,40.00,0,-999,0,0.00
2013-4-16,62,47,32,-100,-100,-100,0,0,100,0.00,40.00,0,-999,0,0.00
2013-4-17,58,50,37,-100,-100,-100,0,0,100,0.00,40.00,0,-999,0,0.00
2013-4-18,56,43,29,-100,-100,-100,0,0,100,0.00,40.00,0,-999,0,0.00
2013-4-19,72,59,48,-100,-100,-100,0,0,100,0.00,40.00,0,-999,0,0.00
2013-4-20,63,48,39,-100,-100,-100,0,0,100,0.00,40.00,0,-999,0,0.00
2013-4-21,49,39,31,-100,-100,-100,0,0,100,0.00,40.00,0,-999,0,0.00
2013-4-22,51,38,24,-100,-100,-100,0,0,100,0.00,40.00,0,-999,0,0.00
2013-4-23,41,35,26,-100,-100,-100,0,0,100,0.00,40.00,0,-999,0,0.00
2013-4-24,76,55,38,-100,-100,-100,0,0,100,0.00,40.00,0,-999,0,0.00
2013-4-25,58,52,37,-100,-100,-100,0,0,100,0.00,40.00,0,-999,0,0.00
2013-4-26,57,44,28,-100,-100,-100,0,0,100,0.00,40.00,0,-999,0,0.00
2013-4-27,65,50,32,-100,-100,-100,0,0,100,0.00,40.00,0,-999,0,0.00
2013-4-28,70,52,32,-100,-100,-100,0,0,100,0.00,40.00,0,-999,0,0.00
2013-4-29,70,54,37,-100,-100,-100,0,0,100,0.00,40.00,0,-999,0,0.00
2013-4-30,72,60,50,-100,-100,-100,0,0,100,0.00,40.00,0,-999,0,0.00
2013-5-1,75,57,36,-100,-100,-100,0,0,100,0.00,40.00,0,-999,0,0.00
2013-5-2,77,55,40,-100,-100,-100,0,0,100,0.00,40.00,0,-999,0,0.00
2013-5-3,65,52,35,-100,-100,-100,0,0,100,0.00,40.00,0,-999,0,0.00
2013-5-4,70,54,40,-100,-100,-100,0,0,100,0.00,40.00,0,-999,0,0.00
2013-5-5,71,52,33,-100,-100,-100,0,0,100,0.00,40.00,0,-999,0,0.00
2013-5-6,76,55,35,-100,-100,-100,0,0,100,0.00,40.00,0,-999,0,0.00
2013-5-7,81,61,40,-100,-100,-100,0,0,100,0.00,40.00,0,-999,0,0.00
2013-5-8,74,61,47,-100,-100,-100,0,0,100,0.00,40.00,0,-999,0,0.00
2013-5-9,67,60,56,-100,-100,-100,0,0,100,0.00,40.00,0,-999,0,0.00
2013-5-10,76,64,55,-100,-100,-100,0,0,100,0.00,40.00,0,-999,0,0.00
2013-5-11,66,61,57,-100,-100,-100,0,0,100,0.00,40.00,0,-999,0,0.00
2013-5-12,66,57,46,-100,-100,-100,0,0,100,0.00,40.00,0,-999,0,0.00
2013-5-13,52,45,40,-100,-100,-100,0,0,100,0.00,40.00,0,-999,0,0.00
2013-5-14,56,44,31,-100,-100,-100,0,0,100,0.00,40.00,0,-999,0,0.00
2013-5-15,64,46,29,-100,-100,-100,0,0,100,0.00,40.00,0,-999,0,0.00
2013-5-16,75,59,47,-100,-100,-100,0,0,100,0.00,40.00,0,-999,0,0.00
2013-5-17,63,54,44,-100,-100,-100,0,0,100,0.00,40.00,0,-999,0,0.00
2013-5-18,71,56,39,-100,-100,-100,0,0,100,0.00,40.00,0,-999,0,0.00
2013-5-19,63,53,43,-100,-100,-100,0,0,100,0.00,40.00,0,-999,0,0.00
2013-5-20,70,60,53,-100,-100,-100,0,0,100,0.00,40.00,0,-999,0,0.00
2013-5-21,62,56,50,-100,-100,-100,0,0,100,0.00,40.00,0,-999,0,0.00
2013-5-22,59,54,50,-100,-100,-100,0,0,100,0.00,40.00,0,-999,0,0.00
2013-5-23,66,58,52,-100,-100,-100,0,0,100,0.00,40.00,0,-999,0,0.00
2013-5-24,66,58,47,-100,-100,-100,0,0,100,0.00,40.00,0,-999,0,0.00
2013-5-25,47,44,33,-100,-100,-100,0,0,100,0.00,40.00,0,-999,0,0.00
2013-5-26,52,44,34,-100,-100,-100,0,0,100,0.00,40.00,0,-999,0,0.00
2013-5-27,66,50,34,-100,-100,-100,0,0,100,0.00,40.00,0,-999,0,0.00
2013-5-28,73,55,36,-100,-100,-100,0,0,100,0.00,40.00,0,-999,0,0.00
2013-5-29,56,52,49,-100,-100,-100,0,0,100,0.00,40.00,0,-999,0,0.00
2013-5-30,84,67,55,-100,-100,-100,0,0,100,0.00,40.00,0,-999,0,0.00
2013-5-31,91,72,58,-100,-100,-100,0,0,100,0.00,40.00,0,-999,0,0.00
2013-6-1,92,74,59,-100,-100,-100,0,0,100,0.00,40.00,0,-999,0,0.00
2013-6-2,89,72,63,-100,-100,-100,0,0,100,0.00,40.00,0,-999,0,0.00
2013-6-3,77,67,59,-100,-100,-100,0,0,100,0.00,40.00,0,-999,0,0.00
2013-6-4,63,56,45,-100,-100,-100,0,0,100,0.00,40.00,0,-999,0,0.00
2013-6-5,71,58,43,-100,-100,-100,0,0,100,0.00,40.00,0,-999,0,0.00
2013-6-6,70,61,50,-100,-100,-100,0,0,100,0.00,40.00,0,-999,0,0.00
2013-6-7,57,53,50,-100,-100,-100,0,0,100,0.00,40.00,0,-999,0,0.00
2013-6-8,68,60,52,-100,-100,-100,0,0,100,0.00,40.00,0,-999,0,0.00
2013-6-9,73,63,53,-100,-100,-100,0,0,100,0.00,40.00,0,-999,0,0.00
2013-6-10,69,59,50,-100,-100,-100,0,0,100,0.00,40.00,0,-999,0,0.00
2013-6-11,58,55,54,-100,-100,-100,0,0,100,0.00,40.00,0,-999,0,0.00
2013-6-12,64,59,54,-100,-100,-100,0,0,100,0.00,40.00,0,-999,0,0.00
2013-6-13,67,58,49,-100,-100,-100,0,0,100,0.00,40.00,0,-999,0,0.00
2013-6-14,74,62,53,-100,-100,-100,0,0,100,0.00,40.00,0,-999,0,0.00
2013-6-15,73,62,48,-100,-100,-100,0,0,100,0.00,40.00,0,-999,0,0.00
2013-6-16,73,59,47,-100,-100,-100,0,0,100,0.00,40.00,0,-999,0,0.00
2013-6-17,80,64,54,-100,-100,-100,0,0,100,0.00,40.00,0,-999,0,0.00
2013-6-18,62,59,53,-100,-100,-100,0,0,100,0.00,40.00,0,-999,0,0.00
2013-6-19,71,59,45,-100,-100,-100,0,0,100,0.00,40.00,0,-999,0,0.00
2013-6-20,76,58,44,-100,-100,-100,0,0,100,0.00,40.00,0,-999,0,0.00
2013-6-22,79,74,66,-100,-100,-100,0,0,100,0.00,40.00,0,-999,0,0.00
2013-6-23,85,71,64,-100,-100,-100,0,0,100,0.00,40.00,0,-999,0,0.00
2013-6-24,88,72,65,-100,-100,-100,0,0,100,0.00,40.00,0,-999,0,0.00
2013-6-25,88,72,64,-100,-100,-100,0,0,100,0.00,40.00,0,-999,0,0.00
2013-6-26,75,69,65,-100,-100,-100,0,0,100,0.00,40.00,0,-999,0,0.00
2013-6-27,71,65,61,-100,-100,-100,0,0,100,0.00,40.00,0,-999,0,0.00
2013-6-28,63,61,58,-100,-100,-100,0,0,100,0.00,40.00,0,-999,0,0.00
2013-6-29,82,68,63,-100,-100,-100,0,0,100,0.00,40.00,0,-999,0,0.00
2013-6-30,82,70,62,-100,-100,-100,0,0,100,0.00,40.00,0,-999,0,0.00
2013-7-1,77,70,65,-100,-100,-100,0,0,100,0.00,40.00,0,-999,0,0.00
2013-7-2,71,65,61,-100,-100,-100,0,0,100,0.00,40.00,0,-999,0,0.00
2013-7-3,87,72,60,-100,-100,-100,0,0,100,0.00,40.00,0,-999,0,0.00
2013-7-4,90,78,67,-100,-100,-100,0,0,100,0.00,40.00,0,-999,0,0.00
2013-7-5,92,79,68,-100,-100,-100,0,0,100,0.00,40.00,0,-999,0,0.00
2013-7-6,86,75,67,-100,-100,-100,0,0,100,0.00,40.00,0,-999,0,0.00
2013-7-7,83,72,64,-100,-100,-100,0,0,100,0.00,40.00,0,-999,0,0.00
2013-7-8,79,72,66,-100,-100,-100,0,0,100,0.00,40.00,0,-999,0,0.00
2013-7-9,73,68,65,-100,-100,-100,0,0,100,0.00,40.00,0,-999,0,0.00
2013-7-10,70,68,66,-100,-100,-100,0,0,100,0.00,40.00,0,-999,0,0.00
2013-7-11,79,71,66,-100,-100,-100,0,0,100,0.00,40.00,0,-999,0,0.00
2013-7-12,79,67,57,-100,-100,-100,0,0,100,0.00,40.00,0,-999,0,0.00
2013-7-13,78,69,59,-100,-100,-100,0,0,100,0.00,40.00,0,-999,0,0.00
2013-7-14,83,74,64,-100,-100,-100,0,0,100,0.00,40.00,0,-999,0,0.00
2013-7-15,89,75,65,-100,-100,-100,0,0,100,0.00,40.00,0,-999,0,0.00
2013-7-16,87,76,66,-100,-100,-100,0,0,100,0.00,40.00,0,-999,0,0.00
2013-7-17,91,76,65,-100,-100,-100,0,0,100,0.00,40.00,0,-999,0,0.00
2013-7-18,88,76,68,-100,-100,-100,0,0,100,0.00,40.00,0,-999,0,0.00
2013-7-19,93,79,69,-100,-100,-100,0,0,100,0.00,40.00,0,-999,0,0.00
2013-7-20,86,74,65,-100,-100,-100,0,0,100,0.00,40.00,0,-999,0,0.00
2013-7-21,79,68,59,-100,-100,-100,0,0,100,0.00,40.00,0,-999,0,0.00
2013-7-22,72,66,60,-100,-100,-100,0,0,100,0.00,40.00,0,-999,0,0.00
2013-7-23,71,65,62,-100,-100,-100,0,0,100,0.00,40.00,0,-999,0,0.00
2013-7-24,76,67,56,-100,-100,-100,0,0,100,0.00,40.00,0,-999,0,0.00
2013-7-25,69,59,47,-100,-100,-100,0,0,100,0.00,40.00,0,-999,0,0.00
2013-7-26,74,65,61,-100,-100,-100,0,0,100,0.00,40.00,0,-999,0,0.00
2013-7-27,83,69,57,-100,-100,-100,0,0,100,0.00,40.00,0,-999,0,0.00
2013-7-28,79,67,58,-100,-100,-100,0,0,100,0.00,40.00,0,-999,0,0.00
2013-7-29,79,68,63,-100,-100,-100,0,0,100,0.00,40.00,0,-999,0,0.00
2013-7-30,76,66,58,-100,-100,-100,0,0,100,0.00,40.00,0,-999,0,0.00
2013-7-31,79,66,54,-100,-100,-100,0,0,100,0.00,40.00,0,-999,0,0.00
2013-8-1,78,64,55,-100,-100,-100,0,0,100,0.00,40.00,0,-999,0,0.00
2013-8-2,79,68,61,-100,-100,-100,0,0,100,0.00,40.00,0,-999,0,0.00
2013-8-3,76,64,55,-100,-100,-100,0,0,100,0.00,40.00,0,-999,0,0.00
2013-8-4,71,62,53,-100,-100,-100,0,0,100,0.00,40.00,0,-999,0,0.00
2013-8-5,71,61,51,-100,-100,-100,0,0,100,0.00,40.00,0,-999,0,0.00
2013-8-6,75,60,46,-100,-100,-100,0,0,100,0.00,40.00,0,-999,0,0.00
2013-8-7,77,64,50,-100,-100,-100,0,0,100,0.00,40.00,0,-999,0,0.00
2013-8-8,82,68,63,-100,-100,-100,0,0,100,0.00,40.00,0,-999,0,0.00
2013-8-9,72,70,67,-100,-100,-100,0,0,100,0.00,40.00,0,-999,0,0.00
2013-8-10,75,67,57,-100,-100,-100,0,0,100,0.00,40.00,0,-999,0,0.00
2013-8-11,76,61,48,-100,-100,-100,0,0,100,0.00,40.00,0,-999,0,0.00
2013-8-12,79,64,53,-100,-100,-100,0,0,100,0.00,40.00,0,-999,0,0.00
2013-8-13,66,62,56,-100,-100,-100,0,0,100,0.00,40.00,0,-999,0,0.00
2013-8-14,70,62,56,-100,-100,-100,0,0,100,0.00,40.00,0,-999,0,0.00
2013-8-15,73,58,48,-100,-100,-100,0,0,100,0.00,40.00,0,-999,0,0.00
2013-8-16,76,62,49,-100,-100,-100,0,0,100,0.00,40.00,0,-999,0,0.00
2013-8-17,77,63,52,-100,-100,-100,0,0,100,0.00,40.00,0,-999,0,0.00
2013-8-18,76,63,52,-100,-100,-100,0,0,100,0.00,40.00,0,-999,0,0.00
2013-8-19,81,65,54,-100,-100,-100,0,0,100,0.00,40.00,0,-999,0,0.00
2013-8-20,82,68,57,-100,-100,-100,0,0,100,0.00,40.00,0,-999,0,0.00
2013-8-21,86,70,58,-100,-100,-100,0,0,100,0.00,40.00,0,-999,0,0.00
2013-8-22,85,71,59,-100,-100,-100,0,0,100,0.00,40.00,0,-999,0,0.00
2013-8-23,76,68,57,-100,-100,-100,0,0,100,0.00,40.00,0,-999,0,0.00
2013-8-24,77,60,45,-100,-100,-100,0,0,100,0.00,40.00,0,-999,0,0.00
2013-8-25,79,62,47,-100,-100,-100,0,0,100,0.00,40.00,0,-999,0,0.00
2013-8-26,75,67,60,-100,-100,-100,0,0,100,0.00,40.00,0,-999,0,0.00
2013-8-27,81,70,64,-100,-100,-100,0,0,100,0.00,40.00,0,-999,0,0.00
2013-8-28,82,75,65,-100,-100,-100,0,0,100,0.00,40.00,0,-999,0,0.00
2013-8-29,67,65,62,-100,-100,-100,0,0,100,0.00,40.00,0,-999,0,0.00
2013-8-30,83,70,62,-100,-100,-100,0,0,100,0.00,40.00,0,-999,0,0.00
2013-8-31,77,70,66,-100,-100,-100,0,0,100,0.00,40.00,0,-999,0,0.00
2013-9-1,80,73,67,-100,-100,-100,0,0,100,0.00,40.00,0,-999,0,0.00
2013-9-2,71,68,67,-100,-100,-100,0,0,100,0.00,40.00,0,-999,0,0.00
2013-9-3,72,67,61,-100,-100,-100,0,0,100,0.00,40.00,0,-999,0,0.00
2013-9-4,75,65,57,-100,-100,-100,0,0,100,0.00,40.00,0,-999,0,0.00
2013-9-5,65,58,45,-100,-100,-100,0,0,100,0.00,40.00,0,-999,0,0.00
2013-9-6,67,52,38,-100,-100,-100,0,0,100,0.00,40.00,0,-999,0,0.00
2013-9-7,71,58,46,-100,-100,-100,0,0,100,0.00,40.00,0,-999,0,0.00
2013-9-8,61,56,46,-100,-100,-100,0,0,100,0.00,40.00,0,-999,0,0.00
2013-9-9,69,52,39,-100,-100,-100,0,0,100,0.00,40.00,0,-999,0,0.00
2013-9-10,66,56,47,-100,-100,-100,0,0,100,0.00,40.00,0,-999,0,0.00
2013-9-11,90,72,63,-100,-100,-100,0,0,100,0.00,40.00,0,-999,0,0.00
2013-9-12,76,68,65,-100,-100,-100,0,0,100,0.00,40.00,0,-999,0,0.00
2013-9-13,69,63,56,-100,-100,-100,0,0,100,0.00,40.00,0,-999,0,0.00
2013-9-14,61,56,50,-100,-100,-100,0,0,100,0.00,40.00,0,-999,0,0.00
2013-9-15,68,53,43,-100,-100,-100,0,0,100,0.00,40.00,0,-999,0,0.00
2013-9-16,59,53,43,-100,-100,-100,0,0,100,0.00,40.00,0,-999,0,0.00
2013-9-17,63,47,34,-100,-100,-100,0,0,100,0.00,40.00,0,-999,0,0.00
2013-9-18,48,41,39,-100,-100,-100,0,0,100,0.00,40.00,0,-999,0,0.00
2013-9-19,75,55,42,-100,-100,-100,0,0,100,0.00,40.00,0,-999,0,0.00
2013-9-20,76,58,45,-100,-100,-100,0,0,100,0.00,40.00,0,-999,0,0.00
2013-9-21,73,60,49,-100,-100,-100,0,0,100,0.00,40.00,0,-999,0,0.00
2013-9-22,67,61,50,-100,-100,-100,0,0,100,0.00,40.00,0,-999,0,0.00
2013-9-23,53,49,46,-100,-100,-100,0,0,100,0.00,40.00,0,-999,0,0.00
2013-9-24,59,51,44,-100,-100,-100,0,0,100,0.00,40.00,0,-999,0,0.00
2013-9-25,61,53,45,-100,-100,-100,0,0,100,0.00,40.00,0,-999,0,0.00
2013-9-26,66,51,38,-100,-100,-100,0,0,100,0.00,40.00,0,-999,0,0.00
2013-9-27,67,55,48,-100,-100,-100,0,0,100,0.00,40.00,0,-999,0,0.00
2013-9-28,70,55,45,-100,-100,-100,0,0,100,0.00,40.00,0,-999,0,0.00
2013-9-29,68,54,45,-100,-100,-100,0,0,100,0.00,40.00,0,-999,0,0.00
2013-9-30,68,53,44,-100,-100,-100,0,0,100,0.00,40.00,0,-999,0,0.00
2013-10-1,61,55,47,-100,-100,-100,0,0,100,0.00,40.00,0,-999,0,0.00
2013-10-2,75,60,49,-100,-100,-100,0,0,100,0.00,40.00,0,-999,0,0.00
2013-10-3,72,57,47,-100,-100,-100,0,0,100,0.00,40.00,0,-999,0,0.00
2013-10-4,67,55,44,-100,-100,-100,0,0,100,0.00,40.00,0,-999,0,0.00
2013-10-5,63,58,55,-100,-100,-100,0,0,100,0.00,40.00,0,-999,0,0.00
2013-10-6,56,52,47,-100,-100,-100,0,0,100,0.00,40.00,0,-999,0,0.00
2013-10-7,69,56,49,-100,-100,-100,0,0,100,0.00,40.00,0,-999,0,0.00
2013-10-8,59,50,39,-100,-100,-100,0,0,100,0.00,40.00,0,-999,0,0.00
2013-10-9,61,44,32,-100,-100,-100,0,0,100,0.00,40.00,0,-999,0,0.00
2013-10-10,64,48,35,-100,-100,-100,0,0,100,0.00,40.00,0,-999,0,0.00
2013-10-11,67,52,43,-100,-100,-100,0,0,100,0.00,40.00,0,-999,0,0.00
2013-10-12,56,49,40,-100,-100,-100,0,0,100,0.00,40.00,0,-999,0,0.00
2013-10-13,55,48,40,-100,-100,-100,0,0,100,0.00,40.00,0,-999,0,0.00
2013-10-14,66,54,41,-100,-100,-100,0,0,100,0.00,40.00,0,-999,0,0.00
2013-10-15,63,58,53,-100,-100,-100,0,0,100,0.00,40.00,0,-999,0,0.00
2013-10-16,59,55,49,-100,-100,-100,0,0,100,0.00,40.00,0,-999,0,0.00
2013-10-17,70,56,47,-100,-100,-100,0,0,100,0.00,40.00,0,-999,0,0.00
2013-10-18,62,54,47,-100,-100,-100,0,0,100,0.00,40.00,0,-999,0,0.00
2013-10-19,63,50,36,-100,-100,-100,0,0,100,0.00,40.00,0,-999,0,0.00
2013-10-20,58,50,41,-100,-100,-100,0,0,100,0.00,40.00,0,-999,0,0.00
2013-10-21,62,46,32,-100,-100,-100,0,0,100,0.00,40.00,0,-999,0,0.00
2013-10-22,52,46,38,-100,-100,-100,0,0,100,0.00,40.00,0,-999,0,0.00
2013-10-23,52,41,34,-100,-100,-100,0,0,100,0.00,40.00,0,-999,0,0.00
2013-10-24,47,41,30,-100,-100,-100,0,0,100,0.00,40.00,0,-999,0,0.00
2013-10-25,44,37,31,-100,-100,-100,0,0,100,0.00,40.00,0,-999,0,0.00
2013-10-26,47,38,27,-100,-100,-100,0,0,100,0.00,40.00,0,-999,0,0.00
2013-10-27,53,42,31,-100,-100,-100,0,0,100,0.00,40.00,0,-999,0,0.00
2013-10-28,52,36,27,-100,-100,-100,0,0,100,0.00,40.00,0,-999,0,0.00
2013-10-29,45,31,21,-100,-100,-100,0,0,100,0.00,40.00,0,-999,0,0.00
2013-10-30,46,34,25,-100,-100,-100,0,0,100,0.00,40.00,0,-999,0,0.00
2013-10-31,45,36,28,-100,-100,-100,0,0,100,0.00,40.00,0,-999,0,0.00
2013-11-1,65,57,45,-100,-100,-100,0,0,100,0.00,40.00,0,-999,0,0.00
2013-11-2,60,48,37,-100,-100,-100,0,0,100,0.00,40.00,0,-999,0,0.00
2013-11-3,40,36,29,-100,-100,-100,0,0,100,0.00,40.00,0,-999,0,0.00
2013-11-4,40,29,21,-100,-100,-100,0,0,100,0.00,40.00,0,-999,0,0.00
2013-11-5,46,32,21,-100,-100,-100,0,0,100,0.00,40.00,0,-999,0,0.00
2013-11-6,58,42,30,-100,-100,-100,0,0,100,0.00,40.00,0,-999,0,0.00
2013-11-7,52,46,40,-100,-100,-100,0,0,100,0.00,40.00,0,-999,0,0.00
2013-11-8,43,36,28,-100,-100,-100,0,0,100,0.00,40.00,0,-999,0,0.00
2013-11-9,41,36,34,-100,-100,-100,0,0,100,0.00,40.00,0,-999,0,0.00
2013-11-10,39,35,32,-100,-100,-100,0,0,100,0.00,40.00,0,-999,0,0.00
2013-11-11,45,38,34,-100,-100,-100,0,0,100,0.00,40.00,0,-999,0,0.00
2013-11-12,42,30,26,-100,-100,-100,0,0,100,0.00,40.00,0,-999,0,0.00
2013-11-13,30,25,20,-100,-100,-100,0,0,100,0.00,40.00,0,-999,0,0.00
2013-11-14,45,31,23,-100,-100,-100,0,0,100,0.00,40.00,0,-999,0,0.00
2013-11-15,49,32,23,-100,-100,-100,0,0,100,0.00,40.00,0,-999,0,0.00
2013-11-16,56,37,27,-100,-100,-100,0,0,100,0.00,40.00,0,-999,0,0.00
2013-11-17,43,35,26,-100,-100,-100,0,0,100,0.00,40.00,0,-999,0,0.00
2013-11-18,59,51,43,-100,-100,-100,0,0,100,0.00,40.00,0,-999,0,0.00
2013-11-19,45,35,30,-100,-100,-100,0,0,100,0.00,40.00,0,-999,0,0.00
2013-11-20,37,29,23,-100,-100,-100,0,0,100,0.00,40.00,0,-999,0,0.00
2013-11-21,43,28,17,-100,-100,-100,0,0,100,0.00,40.00,0,-999,0,0.00
2013-11-22,36,32,27,-100,-100,-100,0,0,100,0.00,40.00,0,-999,0,0.00
2013-11-23,37,33,26,-100,-100,-100,0,0,100,0.00,40.00,0,-999,0,0.00
2013-11-24,25,19,15,-100,-100,-100,0,0,100,0.00,40.00,0,-999,0,0.00
2013-11-25,26,19,13,-100,-100,-100,0,0,100,0.00,40.00,0,-999,0,0.00
2013-11-26,32,28,22,-100,-100,-100,0,0,100,0.00,40.00,0,-999,0,0.00
2013-11-27,42,36,31,-100,-100,-100,0,0,100,0.00,40.00,0,-999,0,0.00
2013-11-28,34,26,18,-100,-100,-100,0,0,100,0.00,40.00,0,-999,0,0.00
2013-11-29,25,17,11,-100,-100,-100,0,0,100,0.00,40.00,0,-999,0,0.00
2013-11-30,27,17,5,-100,-100,-100,0,0,100,0.00,40.00,0,-999,0,0.00
2013-12-1,35,30,25,-100,-100,-100,0,0,100,0.00,40.00,0,-999,0,0.00
2013-12-2,40,35,31,-100,-100,-100,0,0,100,0.00,40.00,0,-999,0,0.00
2013-12-3,44,35,28,-100,-100,-100,0,0,100,0.00,40.00,0,-999,0,0.00
2013-12-4,38,32,26,-100,-100,-100,0,0,100,0.00,40.00,0,-999,0,0.00
2013-12-5,34,32,25,-100,-100,-100,0,0,100,0.00,40.00,0,-999,0,0.00
2013-12-6,42,38,34,-100,-100,-100,0,0,100,0.00,40.00,0,-999,0,0.00
2013-12-7,34,30,22,-100,-100,-100,0,0,100,0.00,40.00,0,-999,0,0.00
2013-12-8,27,23,17,-100,-100,-100,0,0,100,0.00,40.00,0,-999,0,0.00
2013-12-9,26,24,21,-100,-100,-100,0,0,100,0.00,40.00,0,-999,0,0.00
2013-12-10,33,27,18,-100,-100,-100,0,0,100,0.00,40.00,0,-999,0,0.00
2013-12-11,27,20,9,-100,-100,-100,0,0,100,0.00,40.00,0,-999,0,0.00
2013-12-12,19,10,3,-100,-100,-100,0,0,100,0.00,40.00,0,-999,0,0.00
2013-12-13,20,10,-1,-100,-100,-100,0,0,100,0.00,40.00,0,-999,0,0.00
2013-12-14,12,7,1,-100,-100,-100,0,0,100,0.00,40.00,0,-999,0,0.00
2013-12-15,26,18,9,-100,-100,-100,0,0,100,0.00,40.00,0,-999,0,0.00
2013-12-16,19,13,5,-100,-100,-100,0,0,100,0.00,40.00,0,-999,0,0.00
2013-12-17,11,3,-10,-100,-100,-100,0,0,100,0.00,40.00,0,-999,0,0.00
2013-12-18,29,18,11,-100,-100,-100,0,0,100,0.00,40.00,0,-999,0,0.00
2013-12-19,33,24,16,-100,-100,-100,0,0,100,0.00,40.00,0,-999,0,0.00
2013-12-20,38,32,29,-100,-100,-100,0,0,100,0.00,40.00,0,-999,0,0.00
2013-12-21,40,34,33,-100,-100,-100,0,0,100,0.00,40.00,0,-999,0,0.00
2013-12-22,39,33,30,-100,-100,-100,0,0,100,0.00,40.00,0,-999,0,0.00
2013-12-23,33,31,29,-100,-100,-100,0,0,100,0.00,40.00,0,-999,0,0.00
2013-12-24,32,26,15,-100,-100,-100,0,0,100,0.00,40.00,0,-999,0,0.00
2013-12-25,17,10,4,-100,-100,-100,0,0,100,0.00,40.00,0,-999,0,0.00
2013-12-26,22,16,9,-100,-100,-100,0,0,100,0.00,40.00,0,-999,0,0.00
2013-12-27,32,19,9,-100,-100,-100,0,0,100,0.00,40.00,0,-999,0,0.00
2013-12-28,35,23,10,-100,-100,-100,0,0,100,0.00,40.00,0,-999,0,0.00
2013-12-29,34,28,23,-100,-100,-100,0,0,100,0.00,40.00,0,-999,0,0.00
2013-12-30,33,24,4,-100,-100,-100,0,0,100,0.00,40.00,0,-999,0,0.00
2013-12-31,15,6,-4,-100,-100,-100,0,0,100,0.00,40.00,0,-999,0,0.00
2014-1-1,19,8,-2,-100,-100,-100,0,0,100,0.00,40.00,0,-999,0,0.00
2014-1-2,9,4,-2,-100,-100,-100,0,0,100,0.00,40.00,0,-999,0,0.00